JI6FPP-13 Weather Reports


time (UTC)temp
C
wind
direction
speed
KPH
gust
KPH
rain 1hr
cm
rain 24hr
cm
rain mn
cm
humidity
%
barometer
mb
20260504110620 15 180 0.0 0.0 0.00 0.00 0.00 37 1011.0
20260504081619 18 330 0.0 1.6 0.00 0.00 0.00 24 1010.0
20260504080619 19 334 4.8 3.2 0.00 0.10 0.00 12 1010.0
20260504050620 22 325 4.8 12.9 0.00 0.84 0.00 3 1009.0
20260504045620 22 289 1.6 3.2 0.00 0.94 0.00 3 1009.0
20260504044620 22 324 3.2 4.8 0.00 0.94 0.00 3 1010.0
20260504043619 22 318 9.7 29.0 0.00 1.04 0.00 2 1010.0
20260504042619 23 321 4.8 12.9 0.00 1.04 0.00 2 1010.0
20260504041619 23 315 8.0 16.1 0.00 1.04 0.00 2 1010.0
20260504040619 23 315 12.9 14.5 0.00 1.04 0.00 2 1009.0
20260504035620 23 315 8.0 8.0 0.00 1.14 0.00 2 1009.0
20260504034620 23 336 1.6 1.6 0.00 1.14 0.00 2 1009.0
20260504033620 23 315 11.3 9.7 0.00 1.24 0.00 2 1009.0
20260504032620 24 355 9.7 8.0 0.00 1.24 0.00 2 1009.0
20260504031619 23 315 4.8 12.9 0.00 1.24 0.00 2 1009.0
20260504030620 23 313 8.0 14.5 0.00 1.24 0.00 2 1009.0
20260504025620 24 315 4.8 12.9 0.00 1.24 0.00 2 1009.0
20260504024620 24 298 3.2 4.8 0.00 1.24 0.00 2 1009.0
20260504023620 23 289 3.2 3.2 0.00 1.24 0.00 2 1009.0
20260504022620 23 324 8.0 9.7 0.00 1.24 0.00 2 1009.0
20260504021619 23 337 4.8 11.3 0.00 1.24 0.00 2 1009.0
20260504020619 23 340 8.0 12.9 0.00 1.37 0.00 2 1010.0
20260504015619 23 329 4.8 14.5 0.00 1.37 0.00 2 1010.0
20260504014619 23 315 4.8 14.5 0.00 1.37 0.00 12 1009.0
20260504013620 23 315 9.7 4.8 0.00 1.37 0.00 18 1009.0
20260504012620 22 317 3.2 4.8 0.00 1.37 0.00 14 1009.0
20260504011619 21 322 8.0 16.1 0.00 1.37 0.00 23 1009.0
20260504010619 21 225 4.8 3.2 0.00 1.37 0.00 24 1009.0
20260504005619 20 247 3.2 8.0 0.00 1.37 0.00 23 1009.0
20260504004619 20 296 4.8 12.9 0.00 1.37 0.00 26 1009.0
20260504003619 19 323 3.2 12.9 0.00 1.37 0.00 29 1008.0
20260504002619 19 22 3.2 8.0 0.00 1.37 0.00 29 1008.0
20260504001620 19 343 3.2 12.9 0.00 1.37 0.00 28 1007.0
20260504000619 20 293 3.2 8.0 0.00 1.37 0.00 27 1007.0
20260503235619 20 354 3.2 4.8 0.00 1.37 0.00 25 1007.0
20260503234619 21 324 4.8 4.8 0.00 1.37 0.00 26 1006.0
20260503233620 21 351 4.8 9.7 0.00 1.37 0.00 26 1007.0
20260503232621 21 317 4.8 12.9 0.00 1.37 0.00 30 1007.0
20260503231621 20 184 3.2 8.0 0.00 1.37 0.00 33 1007.0
20260503230620 19 315 3.2 0.0 0.00 1.37 0.00 33 1006.0
20260503225620 18 297 4.8 9.7 0.00 1.37 0.00 36 1006.0
20260503224619 17 315 3.2 9.7 0.00 1.37 0.00 37 1006.0
20260503223619 16 315 0.0 4.8 0.00 1.37 0.00 38 1006.0
20260503222620 16 339 3.2 3.2 0.00 1.37 0.00 40 1006.0
20260503221620 15 315 1.6 0.0 0.00 1.37 0.00 43 1005.0
20260503220620 15 301 0.0 11.3 0.00 1.37 0.00 44 1004.0
20260503215620 15 321 0.0 4.8 0.00 1.37 0.00 46 1004.0
20260503214619 14 181 0.0 1.6 0.00 1.37 0.00 49 1005.0
20260503213619 14 180 0.0 0.0 0.00 1.37 0.00 52 1005.0
20260503212620 13 180 1.6 0.0 0.00 1.37 0.00 51 1005.0
20260503211621 13 180 4.8 3.2 0.00 1.37 0.00 51 1004.0
20260503210619 13 225 0.0 0.0 0.00 1.37 0.00 54 1003.0
20260503205620 13 180 0.0 0.0 0.00 1.37 0.00 55 1003.0
20260503204620 12 217 0.0 0.0 0.00 1.37 0.00 56 1003.0
20260503203620 13 180 0.0 0.0 0.00 1.37 0.00 56 1002.0
20260503202620 13 180 0.0 0.0 0.00 1.37 0.00 56 1002.0
20260503201620 13 180 0.0 0.0 0.00 1.37 0.00 57 1002.0
20260503200621 13 180 0.0 0.0 0.00 1.37 0.00 57 1003.0
20260503195619 13 180 0.0 0.0 0.00 1.37 0.00 57 1003.0
20260503194619 13 180 0.0 0.0 0.00 1.37 0.00 59 1003.0
20260503193620 13 180 0.0 0.0 0.00 1.37 0.00 62 1003.0
20260503192620 13 180 0.0 0.0 0.00 1.37 0.00 64 1003.0
20260503191620 13 180 0.0 0.0 0.00 1.37 0.00 64 1002.0
20260503190619 13 180 0.0 0.0 0.00 1.37 0.00 64 1003.0
20260503185620 13 180 0.0 0.0 0.00 1.37 0.00 64 1003.0
20260503184620 13 180 0.0 0.0 0.00 1.37 0.00 65 1003.0
20260503183620 14 180 0.0 0.0 0.00 1.37 0.00 65 1003.0
20260503182620 14 180 0.0 0.0 0.00 1.37 0.00 65 1003.0
20260503181621 14 225 0.0 0.0 0.00 1.37 0.00 66 1003.0
20260503180621 14 180 0.0 0.0 0.00 1.37 0.00 66 1003.0
20260503175620 14 180 1.6 0.0 0.00 1.37 0.00 66 1003.0
20260503174620 14 180 1.6 0.0 0.00 1.37 0.00 66 1003.0
20260503173620 14 180 1.6 0.0 0.00 1.37 0.00 65 1002.0
20260503172621 14 185 1.6 0.0 0.00 1.37 0.00 65 1002.0
20260503171619 14 180 0.0 0.0 0.00 1.37 0.00 65 1003.0
20260503170619 14 180 0.0 0.0 0.00 1.37 0.00 65 1003.0
20260503150619 15 180 0.0 8.0 0.00 1.37 0.00 61 1001.0
20260503130618 15 225 0.0 0.0 0.00 1.37 1.37 81 1000.0